Back to catalog

STARLINK-35616

AliveCommunicationsVLEO
NORAD 66255·PAYLOAD·🇺🇸 United States

Launched Oct 29, 2025 from Cape Canaveral Space Force Station

Loading…

Next Passes (next 24 hours)

TLE

FreshSource: CelesTrak SupGP

Epoch: Sep 14, 2026, 15:44 UTC

1 66255C 25245X   26257.65604167 -.00009908  00000+0 -29292-3 0  2570
2 66255  53.1574 125.1883 0001094 101.1883 194.3664 15.34374775    15

Track STARLINK-35616 in real time with AllMySat

Download on the App Store